Cumberland, WI

10:08 PM CST on December 06, 2019 (GMT -0600)
Cumberland Municipal

Weather History for KUBE - October, 2019

Change the Weather History Date:

Wednesday, October 2, 2019

  Actual Average (KRPD) Record (KRPD)
Temperature  
Mean Temperature 46 °F -  
Max Temperature 50 °F 59 °F 80 °F (2006)
Min Temperature 42 °F 38 °F 19 °F (2003)
Degree Days  
Heating Degree Days 19    
Moisture  
Dew Point 42 °F    
Average Humidity 86    
Maximum Humidity 100    
Minimum Humidity 66    
Precipitation  
Precipitation 0.27 in - - ()
Sea Level Pressure  
Sea Level Pressure 30.07 in    
Wind  
Wind Speed 10 mph (NE)    
Max Wind Speed 15 mph    
Max Gust Speed 21 mph    
Visibility 9 miles    
Events Rain    
Averages and records for this station are not official NWS values.
T = Trace of Precipitation, MM = Missing Value Source: NWS Daily Summary

Daily Weather History Graph

Daily Weather History Graph

Search for Another Location

Airport or City:

Astronomy

Oct. 02, 2019 Rise Set
Actual Time 7:07 AM CDT 6:46 PM CDT
Civil Twilight 6:37 AM CDT 7:16 PM CDT
Nautical Twilight 6:03 AM CDT 7:50 PM CDT
Astronomical Twilight 5:28 AM CDT 8:25 PM CDT
Moon 11:45 AM CDT (10/2) 9:28 PM CDT (10/2)
Length of Visible Light 12h 38m
Length of Day
11h 39m
Waxing Crescent, 20% of the Moon is Illuminated
Oct 2
Waxing Crescent
Oct 5
First Quarter
Oct 13
Full
Oct 21
Last Quarter
Oct 27
New

Hourly Weather History & Observations

Time (CDT) Temp. Windchill Dew Point Humidity Pressure Visibility Wind Dir Wind Speed Gust Speed Precip Events Conditions
12:15 AM 46.4 °F 41.1 °F 42.8 °F 87% 30.05 in 10.0 mi NE 11.5 mph - N/A   Overcast
12:35 AM 46.4 °F 42.9 °F 41.0 °F 81% 30.05 in 10.0 mi NNE 6.9 mph - N/A   Overcast
12:55 AM 46.4 °F 41.1 °F 41.0 °F 81% 30.04 in 10.0 mi NNE 11.5 mph - N/A   Overcast
1:15 AM 46.4 °F 41.9 °F 41.0 °F 81% 30.05 in 10.0 mi NNE 9.2 mph - N/A   Overcast
1:35 AM 46.4 °F 41.9 °F 41.0 °F 81% 30.05 in 10.0 mi NNE 9.2 mph - N/A   Overcast
1:55 AM 46.4 °F 42.4 °F 41.0 °F 81% 30.05 in 10.0 mi NNE 8.1 mph - N/A   Overcast
2:15 AM 46.4 °F 42.4 °F 41.0 °F 81% 30.06 in 10.0 mi NNE 8.1 mph - N/A   Overcast
2:35 AM 46.4 °F 41.9 °F 41.0 °F 81% 30.06 in 10.0 mi NNE 9.2 mph - N/A   Overcast
2:55 AM 46.4 °F 42.9 °F 42.8 °F 87% 30.07 in 10.0 mi North 6.9 mph - N/A Rain Light Rain
3:15 AM 46.4 °F 42.9 °F 42.8 °F 87% 30.07 in 10.0 mi NNE 6.9 mph - N/A   Overcast
3:35 AM 46.4 °F 41.5 °F 42.8 °F 87% 30.08 in 10.0 mi North 10.4 mph - N/A   Overcast
3:55 AM 46.4 °F 41.9 °F 42.8 °F 87% 30.07 in 10.0 mi NNE 9.2 mph - N/A   Overcast
4:15 AM 46.4 °F 41.9 °F 42.8 °F 87% 30.08 in 10.0 mi NNE 9.2 mph - N/A   Overcast
4:35 AM 46.4 °F 41.5 °F 42.8 °F 87% 30.08 in 10.0 mi NNE 10.4 mph - N/A   Overcast
4:55 AM 46.4 °F 41.5 °F 42.8 °F 87% 30.08 in 10.0 mi NNE 10.4 mph - N/A   Overcast
5:15 AM 46.4 °F 41.9 °F 42.8 °F 87% 30.07 in 10.0 mi NNE 9.2 mph - N/A   Overcast
5:35 AM 46.4 °F 42.4 °F 42.8 °F 87% 30.06 in 10.0 mi NNE 8.1 mph - N/A   Overcast
5:55 AM 46.4 °F 41.5 °F 42.8 °F 87% 30.07 in 10.0 mi NE 10.4 mph - N/A   Overcast
6:15 AM 46.4 °F 41.5 °F 42.8 °F 87% 30.07 in 10.0 mi NE 10.4 mph - N/A   Overcast
6:35 AM 46.4 °F 40.7 °F 42.8 °F 87% 30.08 in 10.0 mi ENE 12.7 mph 19.6 mph N/A   Overcast
6:55 AM 46.4 °F 41.1 °F 41.0 °F 81% 30.09 in 10.0 mi NE 11.5 mph 18.4 mph N/A   Overcast
7:15 AM 46.4 °F 41.5 °F 42.8 °F 87% 30.09 in 10.0 mi NE 10.4 mph 16.1 mph N/A   Overcast
7:35 AM 46.4 °F 41.9 °F 41.0 °F 81% 30.10 in 10.0 mi NE 9.2 mph - N/A   Overcast
7:55 AM 46.4 °F 41.9 °F 41.0 °F 81% 30.10 in 10.0 mi NE 9.2 mph - N/A   Overcast
8:15 AM 46.4 °F 41.1 °F 41.0 °F 81% 30.12 in 10.0 mi NE 11.5 mph - N/A   Overcast
8:35 AM 46.4 °F 41.9 °F 41.0 °F 81% 30.13 in 10.0 mi NE 9.2 mph 18.4 mph N/A   Overcast
8:55 AM 46.4 °F 41.9 °F 41.0 °F 81% 30.13 in 10.0 mi NE 9.2 mph - N/A   Overcast
9:15 AM 46.4 °F 40.4 °F 41.0 °F 81% 30.12 in 10.0 mi ENE 13.8 mph - N/A   Overcast
9:35 AM 46.4 °F 41.1 °F 41.0 °F 81% 30.12 in 10.0 mi NE 11.5 mph - N/A   Overcast
9:55 AM 46.4 °F 40.4 °F 41.0 °F 81% 30.11 in 10.0 mi NE 13.8 mph 17.3 mph N/A   Overcast
10:15 AM 46.4 °F 40.4 °F 41.0 °F 81% 30.11 in 10.0 mi NE 13.8 mph 19.6 mph N/A   Overcast
10:35 AM 46.4 °F 40.7 °F 41.0 °F 81% 30.11 in 10.0 mi ENE 12.7 mph - N/A   Overcast
10:55 AM 46.4 °F 40.7 °F 41.0 °F 81% 30.12 in 10.0 mi NE 12.7 mph 18.4 mph N/A   Overcast
11:15 AM 48.2 °F - 39.2 °F 71% 30.13 in 10.0 mi ENE 11.5 mph - N/A   Overcast
11:35 AM 48.2 °F - 39.2 °F 71% 30.11 in 10.0 mi ENE 13.8 mph - N/A   Overcast
11:55 AM 48.2 °F - 39.2 °F 71% 30.11 in 10.0 mi NE 11.5 mph 16.1 mph N/A   Overcast
12:15 PM 48.2 °F - 39.2 °F 71% 30.11 in 10.0 mi NE 11.5 mph 17.3 mph N/A   Overcast
12:35 PM 50.0 °F - 39.2 °F 66% 30.10 in 10.0 mi ENE 11.5 mph 19.6 mph N/A   Overcast
12:55 PM 50.0 °F - 41.0 °F 71% 30.10 in 10.0 mi ENE 8.1 mph - N/A   Overcast
1:15 PM 50.0 °F - 41.0 °F 71% 30.09 in 10.0 mi NE 10.4 mph 16.1 mph N/A   Overcast
1:35 PM 50.0 °F - 41.0 °F 71% 30.08 in 10.0 mi NE 10.4 mph - N/A   Overcast
1:55 PM 48.2 °F - 42.8 °F 82% 30.09 in 7.0 mi ENE 8.1 mph - N/A Rain Light Rain
2:15 PM 46.4 °F 42.4 °F 42.8 °F 87% 30.10 in 10.0 mi NE 8.1 mph - N/A Rain Light Rain
2:35 PM 46.4 °F 42.9 °F 42.8 °F 87% 30.10 in 7.0 mi NNE 6.9 mph - 0.01 in Rain Rain
2:55 PM 46.4 °F 41.9 °F 42.8 °F 87% 30.10 in 10.0 mi NNE 9.2 mph - 0.02 in Rain Rain
3:15 PM 44.6 °F 39.7 °F 42.8 °F 93% 30.09 in 7.0 mi NNE 9.2 mph - 0.02 in Rain Light Rain
3:35 PM 44.6 °F 40.2 °F 42.8 °F 93% 30.09 in 10.0 mi NE 8.1 mph - 0.04 in Rain Rain
3:55 PM 44.6 °F 40.2 °F 42.8 °F 93% 30.10 in 10.0 mi NE 8.1 mph - 0.06 in Rain Rain
4:35 PM 44.6 °F 37.8 °F 42.8 °F 93% 30.06 in 7.0 mi NE 15.0 mph - 0.03 in Rain Light Rain
4:55 PM 44.6 °F 38.4 °F 42.8 °F 93% 30.06 in 7.0 mi NE 12.7 mph 18.4 mph 0.05 in Rain Rain
5:15 PM 44.6 °F 39.2 °F 42.8 °F 93% 30.05 in 7.0 mi ENE 10.4 mph - 0.02 in Rain Light Rain
5:35 PM 44.6 °F 38.1 °F 42.8 °F 93% 30.05 in 10.0 mi ENE 13.8 mph 20.7 mph 0.04 in Rain Light Rain
5:55 PM 44.6 °F 39.2 °F 42.8 °F 93% 30.04 in 10.0 mi ENE 10.4 mph 20.7 mph 0.06 in   Light Drizzle
6:15 PM 44.6 °F 37.8 °F 42.8 °F 93% 30.05 in 10.0 mi ENE 15.0 mph - N/A   Overcast
6:35 PM 44.6 °F 38.4 °F 42.8 °F 93% 30.05 in 10.0 mi ENE 12.7 mph 19.6 mph N/A   Overcast
6:55 PM 44.6 °F 39.2 °F 42.8 °F 93% 30.05 in 7.0 mi ENE 10.4 mph 16.1 mph N/A   Light Drizzle
7:15 PM 44.6 °F 40.7 °F 42.8 °F 93% 30.05 in 7.0 mi NE 6.9 mph - N/A Rain Light Rain
7:35 PM 44.6 °F 40.2 °F 42.8 °F 93% 30.06 in 5.0 mi ENE 8.1 mph - N/A   Light Drizzle
7:55 PM 44.6 °F 40.7 °F 42.8 °F 93% 30.05 in 5.0 mi ENE 6.9 mph - N/A   Light Drizzle
8:15 PM 44.6 °F 38.4 °F 42.8 °F 93% 30.04 in 5.0 mi East 12.7 mph - N/A   Light Drizzle
8:35 PM 44.6 °F 40.7 °F 42.8 °F 93% 30.05 in 7.0 mi East 6.9 mph - N/A Rain Light Rain
8:55 PM 44.6 °F 41.4 °F 42.8 °F 93% 30.04 in 7.0 mi East 5.8 mph - N/A   Overcast
9:15 PM 44.6 °F 40.7 °F 42.8 °F 93% 30.05 in 10.0 mi East 6.9 mph - N/A   Overcast
9:35 PM 44.6 °F 39.7 °F 42.8 °F 93% 30.03 in 7.0 mi East 9.2 mph - N/A   Overcast
9:55 PM 44.6 °F 39.2 °F 42.8 °F 93% 30.02 in 5.0 mi East 10.4 mph 18.4 mph N/A   Light Drizzle
10:15 PM 44.6 °F 39.2 °F 42.8 °F 93% 30.03 in 5.0 mi East 10.4 mph - N/A   Light Drizzle
10:35 PM 42.8 °F 38.0 °F 42.8 °F 100% 30.03 in 7.0 mi East 8.1 mph 16.1 mph N/A   Overcast
10:55 PM 42.8 °F 40.1 °F 42.8 °F 100% 30.02 in 4.0 mi East 4.6 mph - N/A Rain Heavy Rain
11:15 PM 42.8 °F 39.3 °F 42.8 °F 100% 30.03 in 5.0 mi East 5.8 mph - 0.02 in Rain Rain
11:35 PM 42.8 °F 39.3 °F 42.8 °F 100% 30.02 in 4.0 mi East 5.8 mph - 0.06 in Rain Light Rain
11:55 PM 42.8 °F 39.3 °F 42.8 °F 100% 30.02 in 4.0 mi East 5.8 mph - 0.08 in   Drizzle